Content
SEND FEEDBACK

Daily
Averages
Monthly
Summary
United States of America

CHICAGO, ILLINOIS


Home > North America > United States > Illinois
Elevation: 205 meters     Latitude: 41 59N     Longitude: 087 54W

WEATHER
 
SELECT A DAY
Number of Records: 199,610;   Date Range: 7/8/95 - 12/19/14
 
SHARE

PRINT THIS DATA

[ ← Previous Day ]
WEATHER ALMANAC - 24 APRIL, 2013
[ Next Day → ]
[ °F ]   °C
Weather ElementAverageHighLow
Temperature5.7 °C10 °C (4:52 pm)2.8 °C (3:52 am)
Dewpoint-0.8 °C2.2 °C (1:52 am)-3.9 °C (1:52 pm)
Humidity65.9 %93 % (3:52 am)39 % (6:52 pm)
Barometer1017.3 hPa1020.3 hPa (10:52 pm)1014.9 hPa (2:52 am)
Wind Speed13.2 km/h22.2 km/h (10:52 am)
Wind Gust33.3 km/h (2:52 pm)
Weather ElementAverage
Visibility15.4 km
Wind DirectionWSW (261.8 °)

Weather ElementTotal
Precipitation---
Heating Degree Days11.9 (Base 18.3)
Averaged from 28 records on 24 April, 2013
WEATHER CONDITIONS BREAKOUT
WIND DIRECTION BREAKOUT
WEATHER BY HOUR - 24 APRIL, 2013
[ °F ]   °C
Local TimeTemperatureDewpointHumidityBarometerVisibilityWind DirectionWind SpeedGust SpeedPrecipitationEventsConditions
1:52 AM3.9 °C2.2 °C89 %1015.2 hPa12.9 kmNNE (30°)11.1 km/hRainLight Rain
2:52 AM3.3 °C1.7 °C89 %1014.9 hPa9.7 kmNorth (10°)13 km/hRainLight Rain
3:52 AM2.8 °C1.7 °C93 %1015.6 hPa12.9 kmNorth (360°)11.1 km/hRainLight Rain
4:52 AM2.8 °C1.7 °C93 %1015.9 hPa9.7 kmVariable5.6 km/hRainLight Rain
5:52 AM3.3 °C1.7 °C89 %1015.9 hPa16.1 kmNorth (350°)5.6 km/hOvercast
6:49 AM3 °C2 °C93 %1015.9 hPa16.1 kmNorth (360°)5.6 km/hOvercast
6:52 AM3.3 °C1.7 °C89 %1016.3 hPa16.1 kmNorth (360°)7.4 km/hOvercast
6:59 AM3 °C1 °C87 %1015.9 hPa16.1 kmNorth (360°)5.6 km/h
7:10 AM3 °C2 °C93 %1015.9 hPa16.1 kmCalmOvercast
7:39 AM4 °C1 °C81 %1016.3 hPa16.1 kmNorth (350°)7.4 km/hOvercast
7:52 AM3.9 °C0.6 °C79 %1016.9 hPa16.1 kmNorth (350°)11.1 km/hOvercast
8:22 AM4 °C-1 °C70 %1015.9 hPa16.1 kmNorth (350°)16.7 km/hOvercast
8:52 AM3.9 °C-1.1 °C70 %1016.6 hPa16.1 kmNNW (340°)16.7 km/hOvercast
9:52 AM3.9 °C-2.2 °C65 %1017.3 hPa16.1 kmNNW (330°)13 km/hOvercast
10:52 AM5 °C-2.8 °C57 %1017.9 hPa16.1 kmNW (320°)22.2 km/hOvercast
11:52 AM5.6 °C-3.3 °C53 %1017.6 hPa16.1 kmNNW (330°)18.5 km/hMostly Cloudy
12:52 PM6.7 °C-2.8 °C51 %1017.9 hPa16.1 kmNNW (330°)18.5 km/h31.5 km/hMostly Cloudy
1:52 PM7.8 °C-3.9 °C44 %1017.6 hPa16.1 kmNNW (340°)14.8 km/hMostly Cloudy
2:52 PM8.9 °C-3.3 °C42 %1017.9 hPa16.1 kmWest (280°)20.4 km/h33.3 km/h
3:52 PM9.4 °C-3.3 °C41 %1017.9 hPa16.1 kmWest (270°)22.2 km/h31.5 km/h
4:52 PM10 °C-2.8 °C41 %1017.9 hPa16.1 kmNW (310°)16.7 km/h33.3 km/h
5:52 PM10 °C-2.8 °C41 %1017.9 hPa16.1 kmWest (270°)22.2 km/hMostly Cloudy
6:52 PM10 °C-3.3 °C39 %1018.6 hPa16.1 kmWest (270°)16.7 km/h
7:52 PM8.9 °C-2.8 °C44 %1019.3 hPa16.1 kmSW (230°)11.1 km/h
8:52 PM8.3 °C-1.7 °C50 %1020 hPa16.1 kmSW (220°)13 km/h
9:52 PM7.8 °C-1.7 °C51 %1020 hPa16.1 kmSSW (210°)11.1 km/h
10:52 PM7.2 °C-1.7 °C53 %1020.3 hPa16.1 kmSSW (200°)16.7 km/h
11:52 PM6.7 °C-1.1 °C58 %1020 hPa16.1 kmSSW (200°)14.8 km/h
Hourly data recorded from KPWK, located 0 kilometers away from Chicago, Illinois







STORIES FROM OUR PARTNERS